Location: Stoke Bliss
(52.2667°N, 2.5167°W)
Time: 14:02:46
(UTC+00:00)

Envisat - Pass Details

Date: 06 December 2021
Orbit: 764 x 766 km, 98.2° (Epoch: 28 January)

Event Time Altitude Azimuth Distance (km) Brightness Sun altitude
Rises 05:54:50 0° 11° (NNE) 3,248 6.2 -18.6°
Reaches altitude 10° 05:57:10 10° 8° (N) 2,317 5.4 -18.2°
Maximum altitude 06:02:09 56° 291° (WNW) 914 3.0 -17.5°
Drops below altitude 10° 06:07:06 10° 215° (SW) 2,300 5.3 -16.7°
Sets 06:09:25 0° 211° (SSW) 3,222 6.1 -16.4°
